Home > Weather > Nome > Past weeks

Flag for USA Weather for the Past 2 Weeks in Nome, Alaska, USA

Now
42 °F

Broken clouds.


Feels Like: 37 °F
Forecast: 36 / 45 °F
Wind: 9 mph from Southwest

Location: Nome Airport

Current Time: Apr 29, 2016 at 4:23:07 PM

Latest Report: Apr 29, 2016 at 3:53 PM


Visibility: 10 mi

Pressure: 29.68 "Hg

Humidity: 68%

Dew Point: 32 °F

Location of NomeLocation

Historic Weather in Nome — Graph

°F

Nome Temperature Yesterday

Maximum temperature yesterday: 48 °F (at 7:53 PM)
Minimum temperature yesterday: 31 °F (at 6:53 AM)
Average temperature yesterday: 39 °F

High & Low Weather Summary for the Past Weeks

 TemperatureHumidityPressure
High50 °F (Apr 26, 6:53 PM)89% (Apr 25, 5:53 AM)29.98 "Hg (Apr 25, 5:53 AM)
Low22 °F (Apr 16, 4:53 AM)40% (Apr 17, 12:53 PM)29.59 "Hg (Apr 26, 7:53 PM)
Average37 °F66%29.77 "Hg
* Reported Apr 14 2:53 PM — Apr 29 2:53 PM, Nome, Weather by CustomWeather, © 2016

Note: Actual official high and low records may vary slightly from our data, if they occured in-between our weather recording intervals... More about our weather records

Advertising

Nome Weather History for the Previous 24 Hours

Scroll right to see more
 ConditionsComfort  
Time TempWeatherWind HumidityBarometerVisibility
2:53 PM
Fri, Apr 29
43 °FBroken clouds.8 mph68%29.67 "Hg10 mi
1:53 PM42 °FCloudy.9 mph71%29.67 "Hg10 mi
12:53 PM42 °FCloudy.7 mph71%29.66 "Hg10 mi
11:53 AM39 °FCloudy.7 mph76%29.66 "Hg10 mi
10:53 AM44 °FCloudy.6 mph65%29.66 "Hg10 mi
9:53 AM40 °FCloudy.No wind73%29.65 "Hg10 mi
8:53 AM38 °FBroken clouds.No wind79%29.65 "Hg10 mi
7:53 AM36 °FOvercast.3 mph82%29.64 "Hg10 mi
6:53 AM36 °FMostly cloudy.5 mph82%29.64 "Hg10 mi
5:53 AM35 °FOvercast.No wind85%29.64 "Hg10 mi
4:53 AM36 °FPassing clouds.3 mph79%29.63 "Hg10 mi
3:53 AM36 °FClear.5 mph79%29.63 "Hg10 mi
2:53 AM37 °FClear.7 mph79%29.63 "Hg10 mi
1:53 AM37 °FOvercast.3 mph79%29.63 "Hg10 mi
12:53 AM39 °FOvercast.7 mph73%29.63 "Hg10 mi
11:53 PM
Thu, Apr 28
40 °FSunny.3 mph70%29.62 "Hg10 mi
10:53 PM44 °FPartly sunny.10 mph63%29.62 "Hg10 mi
9:53 PM45 °FPartly sunny.5 mph63%29.61 "Hg10 mi
8:53 PM46 °FPartly sunny.6 mph58%29.61 "Hg10 mi
7:53 PM48 °FPartly sunny.9 mph54%29.60 "Hg10 mi
6:53 PM46 °FOvercast.8 mph61%29.60 "Hg10 mi
5:53 PM47 °FPartly sunny.10 mph59%29.61 "Hg10 mi
4:53 PM44 °FScattered clouds.10 mph63%29.61 "Hg10 mi
Weather by CustomWeather, © 2016

See weather overviewHow to use our weather pages